[[{"header":{"parameterUnit":"m.s-1","parameterCategory":1,"la1":30.2991,"la2":30.254,"lo1":-89.0895,"lo2":-89.0444,"dy":0.0017,"dx":0.0017,"nx":28,"ny":28,"refTime":"2024-12-07T09:00:00:Z","depth":0,"parameterNumber":2,"parameterNumberName":"U-component_of_WINDS"},"data":[0,0,0,0,0,0,0,0,0,0,0,0,0,0,0,0,0,0,0,0,0,0,0,0,0,0,0,0,0,0,0,0,0,0,0,0,0,0,0,0,0,0,0,0,0,0,0,0,0,0,0,0,0,0,0,0,0,0,-2.5543,-2.5543,0,-2.5504,-2.5503,-2.5503,-2.5387,-2.5384,-2.5382,-2.538,-2.5342,-2.5344,-2.5345,0,0,0,0,0,0,0,0,0,0,0,0,0,-2.5521,-2.5522,-2.5543,-2.5543,-2.5542,-2.5504,-2.5503,-2.5503,-2.5387,-2.5384,-2.5381,-2.5378,-2.5342,-2.5344,-2.5345,0,0,0,0,0,0,0,0,0,0,0,0,0,-2.5511,-2.5522,-2.5543,-2.548,-2.5474,-2.5504,-2.5503,-2.5503,-2.5388,-2.5384,-2.538,-2.5377,-2.5341,-2.5343,-2.5346,-2.5435,0,0,-2.5352,-2.5353,0,0,0,0,0,0,0,0,-2.5512,-2.5512,-2.549,-2.5484,-2.5477,-2.5446,-2.5482,-2.548,-2.5389,-2.5421,-2.5379,-2.5375,-2.538,-2.5379,-2.538,-2.5433,-2.5431,-2.5352,-2.5353,-2.5354,-2.5355,0,0,0,0,0,0,0,-2.5513,-2.5513,-2.5527,-2.5489,-2.5482,-2.5454,-2.5449,-2.5481,-2.5423,-2.5418,-2.5409,-2.5406,-2.5376,-2.5378,-2.5378,-2.5431,-2.5352,-2.5354,-2.5355,-2.5356,-2.5557,-2.5561,0,0,0,0,0,0,-2.5522,-2.5515,-2.5529,-2.5526,-2.5486,-2.5458,-2.5452,-2.546,-2.5422,-2.5412,-2.5409,-2.5401,-2.5377,-2.5376,-2.5377,-2.548,-2.5354,-2.5356,-2.5357,-2.5553,-2.5558,-2.5562,0,0,0,0,0,0,-2.5522,-2.5525,-2.553,-2.5518,-2.5517,-2.5462,-2.5473,-2.5462,-2.5463,-2.5415,-2.5405,-2.5422,-2.5374,-2.5374,-2.5421,-2.5477,-2.5357,-2.5359,-2.5548,-2.5555,-2.556,-2.5687,0,0,0,0,0,0,-2.5522,-2.5525,-2.5558,-2.552,-2.5518,-2.5575,-2.5476,-2.5463,-2.5467,-2.5455,-2.5425,-2.5416,-2.5371,-2.5419,-2.5424,-2.5478,-2.5361,-2.5543,-2.5551,-2.5558,-2.5678,-2.5697,-2.5714,0,0,0,0,0,-2.5522,-2.5595,-2.556,-2.5562,-2.5557,-2.5579,-2.5578,-2.5523,-2.5472,-2.5505,-2.5474,-2.5417,-2.547,-2.5425,-2.5429,-2.5485,-2.5539,-2.5549,-2.5558,-2.567,-2.5693,-2.5713,0,0,0,0,0,0,-2.5642,-2.5589,-2.5549,-2.5613,-2.5601,-2.5559,-2.5599,-2.555,-2.5553,-2.5542,-2.5475,-2.5469,-2.5527,-2.551,-2.5461,-2.557,-2.5495,-2.5506,-2.5579,-2.5601,-2.5619,-2.5622,-2.5362,0,0,0,0,0,-2.5676,-2.5697,-2.5649,-2.571,-2.5706,-2.5654,-2.5661,-2.562,-2.5606,-2.5601,-2.5573,-2.5562,-2.5577,-2.5587,-2.5598,-2.5674,-2.5667,-2.5715,-2.5733,-2.5748,-2.5758,-2.58,-2.5821,-2.5593,-2.5593,-2.5592,0,0,-2.5746,-2.572,-2.5737,-2.5734,-2.572,-2.5744,-2.5651,-2.568,-2.5698,-2.5605,-2.5649,-2.5629,-2.5612,-2.5675,-2.5702,-2.5663,-2.5819,-2.5759,-2.5772,-2.5774,-2.5811,-2.5833,-2.5852,-2.5599,-2.5598,-2.5597,0,0,-2.5888,-2.5869,-2.5918,-2.5906,-2.5886,-2.5851,-2.5863,-2.5828,-2.5811,-2.5854,-2.5785,-2.5806,-2.5831,-2.5823,-2.5822,-2.5961,-2.591,-2.5966,-2.606,-2.6101,-2.6119,-2.6135,-2.6187,-2.6206,-2.5977,-2.5977,-2.5977,0,-2.5978,-2.6011,-2.595,-2.5984,-2.5985,-2.5902,-2.5952,-2.5944,-2.5929,-2.5932,-2.5889,-2.592,-2.5903,-2.5964,-2.5998,-2.5999,-2.6012,-2.5971,-2.6121,-2.6136,-2.615,-2.6199,-2.6218,-2.5984,-2.5983,-2.5983,-2.5982,0,-2.6124,-2.6148,-2.6191,-2.6178,-2.6184,-2.6226,-2.6173,-2.6186,-2.6145,-2.6115,-2.616,-2.6137,-2.6142,-2.6153,-2.6113,-2.6209,-2.6186,-2.6133,-2.6057,-2.618,-2.6225,-2.6243,-2.5995,-2.5992,-2.599,-2.5988,0,0,-2.6341,-2.6294,-2.6311,-2.6305,-2.6277,-2.6295,-2.6334,-2.6338,-2.6352,-2.6344,-2.6377,-2.6401,-2.6352,-2.6351,-2.6309,-2.6345,-2.646,-2.6288,-2.6286,-2.6323,-2.6567,-2.6609,-2.6631,-2.6424,-2.6427,-2.643,-2.6569,0,-2.6476,-2.654,-2.6486,-2.656,-2.6583,-2.6504,-2.6538,-2.6526,-2.6499,-2.6515,-2.6485,-2.6504,-2.6437,-2.6436,-2.6468,-2.6439,-2.6508,-2.6428,-2.6456,-2.6458,-2.6465,-2.6654,-2.6698,-2.683,-2.6586,-2.6589,-2.6591,0,-2.6642,-2.6643,-2.6719,-2.6687,-2.6695,-2.6726,-2.6727,-2.6742,-2.6727,-2.6705,-2.6705,-2.6654,-2.6692,-2.6616,-2.6668,-2.6615,-2.6623,-2.661,-2.6614,-2.6617,-2.6533,-2.6664,-2.687,-2.6891,-2.6617,-2.6615,-2.6613,0,-2.6796,-2.6815,-2.6863,-2.686,-2.6824,-2.6848,-2.6835,-2.6815,-2.6822,-2.6822,-2.6826,-2.6831,-2.6835,-2.6841,-2.6793,-2.6742,-2.6853,-2.6772,-2.6837,-2.6839,-2.6866,-2.6865,-2.708,-2.6868,-2.6868,-2.6867,-2.6867,0,-2.6954,-2.7004,-2.6932,-2.6962,-2.7017,-2.6955,-2.7011,-2.6989,-2.6973,-2.6999,-2.693,-2.6956,-2.6891,-2.691,-2.6873,-2.6924,-2.6925,-2.691,-2.69,-2.6917,-2.692,-2.6923,-2.6914,-2.6872,-2.6871,-2.687,-2.6869,0,-2.7135,-2.7088,-2.7136,-2.7098,-2.709,-2.7132,-2.71,-2.7127,-2.7095,-2.7129,-2.7133,-2.7084,-2.7104,-2.7056,-2.7069,-2.7044,-2.7117,-2.7091,-2.7122,-2.7115,-2.7184,-2.718,-2.741,-2.7438,-2.7207,-2.7209,-2.7211,0,-2.724,-2.7277,-2.7243,-2.7255,-2.7245,-2.7265,-2.7271,-2.7212,-2.7221,-2.7207,-2.7237,-2.725,-2.7258,-2.7294,-2.726,-2.727,-2.7245,-2.7325,-2.7246,-2.7263,-2.7249,-2.7249,-2.7253,-2.7343,-2.7345,-2.7348,-2.7349,0,-2.7432,-2.7407,-2.7418,-2.7422,-2.7432,-2.7432,-2.7427,-2.7441,-2.7378,-2.7393,-2.7412,-2.7418,-2.7431,-2.7446,-2.7448,-2.7435,-2.7384,-2.7374,-2.739,-2.741,-2.7427,-2.7421,-2.7169,-2.737,-2.7368,-2.7366,-2.7365,-2.7364,-2.758,-2.761,-2.7591,-2.7606,-2.7596,-2.7594,-2.7618,-2.759,-2.7604,-2.7609,-2.7574,-2.7601,-2.7586,-2.7584,-2.7576,-2.7598,-2.7561,-2.7584,-2.759,-2.7597,-2.761,-2.7422,-2.7597,-2.7597,-2.7596,-2.7596,-2.7595,0,-2.777,-2.7754,-2.7769,-2.7765,-2.7777,-2.7725,-2.7718,-2.7732,-2.7757,-2.7747,-2.7756,-2.7779,-2.7793,-2.7761,-2.7771,-2.7795,-2.7772,-2.78,-2.7799,-2.7797,-2.764,-2.7627,-2.7819,-2.7819,-2.7819,-2.7819,-2.7819,-2.7819,-2.7871,-2.792,-2.7893,-2.7937,-2.792,-2.7946,-2.7946,-2.7945,-2.7936,-2.7965,-2.7976,-2.7955,-2.7936,-2.7945,-2.7957,-2.7947,-2.7955,-2.7992,-2.7975,-2.783,-2.7808,-2.7787,-2.7774,-2.7994,-2.7994,-2.813,-2.8131,-2.8132]},{"header":{"parameterUnit":"m.s-1","parameterCategory":1,"la1":30.2991,"la2":30.254,"lo1":-89.0895,"lo2":-89.0444,"dy":0.0017,"dx":0.0017,"nx":28,"ny":28,"refTime":"2024-12-07T09:00:00:Z","depth":0,"parameterNumber":3,"parameterNumberName":"V-component_of_WINDS"},"data":[0,0,0,0,0,0,0,0,0,0,0,0,0,0,0,0,0,0,0,0,0,0,0,0,0,0,0,0,0,0,0,0,0,0,0,0,0,0,0,0,0,0,0,0,0,0,0,0,0,0,0,0,0,0,0,0,0,0,-0.5575,-0.5576,0,-0.5621,-0.5622,-0.5622,-0.5626,-0.5625,-0.5625,-0.5625,-0.5672,-0.5674,-0.5675,0,0,0,0,0,0,0,0,0,0,0,0,0,-0.5489,-0.5491,-0.5575,-0.5576,-0.5576,-0.5621,-0.5622,-0.5622,-0.5626,-0.5625,-0.5625,-0.5624,-0.5671,-0.5673,-0.5675,0,0,0,0,0,0,0,0,0,0,0,0,0,-0.553,-0.5492,-0.5575,-0.5583,-0.5585,-0.5621,-0.5622,-0.5623,-0.5626,-0.5625,-0.5625,-0.5624,-0.5671,-0.5673,-0.5676,-0.5707,0,0,-0.5684,-0.5685,0,0,0,0,0,0,0,0,-0.5528,-0.5533,-0.5582,-0.5583,-0.5584,-0.5617,-0.5609,-0.5651,-0.5626,-0.561,-0.5624,-0.5624,-0.5654,-0.5658,-0.5668,-0.5709,-0.5711,-0.5684,-0.5685,-0.5687,-0.5687,0,0,0,0,0,0,0,-0.5525,-0.5531,-0.5593,-0.5582,-0.5584,-0.5585,-0.559,-0.5617,-0.5636,-0.5612,-0.5612,-0.5618,-0.5655,-0.5666,-0.567,-0.5712,-0.5684,-0.5686,-0.5688,-0.5689,-0.578,-0.5781,0,0,0,0,0,0,-0.5521,-0.5529,-0.5592,-0.5595,-0.5554,-0.5587,-0.5592,-0.5607,-0.5636,-0.5639,-0.5618,-0.5618,-0.5662,-0.5667,-0.5671,-0.571,-0.5687,-0.5689,-0.569,-0.5779,-0.578,-0.5781,0,0,0,0,0,0,-0.5519,-0.5526,-0.559,-0.5562,-0.557,-0.5589,-0.5606,-0.5609,-0.562,-0.5641,-0.5644,-0.5626,-0.5662,-0.5668,-0.5698,-0.5712,-0.569,-0.5693,-0.5778,-0.5779,-0.5781,-0.5788,0,0,0,0,0,0,-0.5516,-0.5526,-0.5538,-0.5562,-0.5572,-0.5616,-0.5607,-0.561,-0.5624,-0.5624,-0.5649,-0.5652,-0.5661,-0.5694,-0.5701,-0.5715,-0.5695,-0.5777,-0.5779,-0.578,-0.5786,-0.5789,-0.5791,0,0,0,0,0,-0.5513,-0.5538,-0.5539,-0.5546,-0.5587,-0.5617,-0.5622,-0.5632,-0.5625,-0.5638,-0.5651,-0.5652,-0.5709,-0.5697,-0.5704,-0.572,-0.5776,-0.5778,-0.578,-0.5785,-0.5788,-0.5791,0,0,0,0,0,0,-0.5515,-0.5541,-0.5542,-0.5576,-0.5594,-0.5618,-0.5634,-0.5635,-0.5656,-0.5655,-0.5666,-0.5672,-0.5702,-0.5714,-0.57,-0.5751,-0.5742,-0.5745,-0.5743,-0.5746,-0.5749,-0.5746,-0.5697,0,0,0,0,0,-0.5519,-0.5541,-0.5563,-0.559,-0.5599,-0.5615,-0.5628,-0.5634,-0.5653,-0.5661,-0.5677,-0.5696,-0.5718,-0.5732,-0.5754,-0.5787,-0.5793,-0.5801,-0.5804,-0.5806,-0.5809,-0.5828,-0.5832,-0.5788,-0.5788,-0.5788,0,0,-0.5528,-0.5545,-0.5559,-0.5591,-0.5606,-0.5628,-0.5621,-0.5645,-0.5662,-0.5665,-0.5695,-0.5707,-0.5728,-0.576,-0.5775,-0.5771,-0.5822,-0.5808,-0.581,-0.5812,-0.583,-0.5834,-0.5838,-0.5789,-0.5789,-0.5788,0,0,-0.5557,-0.5571,-0.5596,-0.5611,-0.5634,-0.5643,-0.5649,-0.5672,-0.568,-0.571,-0.5713,-0.5732,-0.577,-0.5786,-0.5799,-0.5832,-0.5833,-0.5838,-0.5852,-0.587,-0.5873,-0.5877,-0.5889,-0.5893,-0.5841,-0.5841,-0.5841,0,-0.5565,-0.5599,-0.5608,-0.5632,-0.5647,-0.5649,-0.5674,-0.5688,-0.5717,-0.5726,-0.5721,-0.5769,-0.5783,-0.5819,-0.5827,-0.5837,-0.5844,-0.5836,-0.5872,-0.5875,-0.5878,-0.5891,-0.5895,-0.5842,-0.5842,-0.5841,-0.5841,0,-0.5609,-0.5632,-0.5649,-0.5677,-0.5693,-0.5717,-0.573,-0.5744,-0.5748,-0.5759,-0.5789,-0.5806,-0.5832,-0.584,-0.5844,-0.5877,-0.5873,-0.587,-0.5861,-0.5883,-0.5895,-0.5899,-0.5842,-0.5842,-0.5842,-0.5842,0,0,-0.5642,-0.5673,-0.5679,-0.5691,-0.5716,-0.5734,-0.5758,-0.5783,-0.5795,-0.5814,-0.5835,-0.5867,-0.5863,-0.5878,-0.5884,-0.5899,-0.5925,-0.5894,-0.5894,-0.59,-0.5962,-0.5965,-0.597,-0.5925,-0.5926,-0.5926,-0.596,0,-0.5673,-0.5717,-0.5725,-0.5763,-0.5785,-0.5787,-0.5808,-0.5825,-0.5835,-0.5855,-0.5865,-0.5888,-0.5882,-0.589,-0.5906,-0.5918,-0.5937,-0.5916,-0.5945,-0.5946,-0.5941,-0.5976,-0.598,-0.6011,-0.5965,-0.5965,-0.5966,0,-0.5717,-0.5737,-0.5777,-0.5798,-0.5808,-0.5827,-0.585,-0.5868,-0.5887,-0.5893,-0.5909,-0.5913,-0.5938,-0.5926,-0.5961,-0.5946,-0.5958,-0.5965,-0.5967,-0.5971,-0.5958,-0.5983,-0.6021,-0.6026,-0.5973,-0.5972,-0.5972,0,-0.5738,-0.5775,-0.5804,-0.5814,-0.5839,-0.5852,-0.5863,-0.5882,-0.5896,-0.5916,-0.5925,-0.5947,-0.596,-0.5976,-0.5986,-0.5977,-0.602,-0.6009,-0.6026,-0.6026,-0.6037,-0.6036,-0.6079,-0.6042,-0.6042,-0.6042,-0.6042,0,-0.5774,-0.5798,-0.5813,-0.5831,-0.5859,-0.5867,-0.5894,-0.5905,-0.5921,-0.5941,-0.5943,-0.5962,-0.5973,-0.5993,-0.6,-0.6028,-0.6033,-0.6039,-0.6041,-0.604,-0.6039,-0.6049,-0.6048,-0.6043,-0.6043,-0.6043,-0.6042,0,-0.5803,-0.5814,-0.5845,-0.5866,-0.5872,-0.5891,-0.5909,-0.5926,-0.5935,-0.5961,-0.5967,-0.5982,-0.6005,-0.6016,-0.6045,-0.605,-0.6082,-0.6081,-0.6075,-0.6076,-0.6093,-0.6092,-0.6145,-0.6153,-0.611,-0.611,-0.611,0,-0.5826,-0.5845,-0.5867,-0.5881,-0.5892,-0.5914,-0.5928,-0.5937,-0.5951,-0.5974,-0.5989,-0.6012,-0.6032,-0.6069,-0.6082,-0.6104,-0.6106,-0.6122,-0.6109,-0.6107,-0.6107,-0.6107,-0.6109,-0.6126,-0.6126,-0.6126,-0.6127,0,-0.5865,-0.587,-0.589,-0.5912,-0.5929,-0.5947,-0.5965,-0.5975,-0.5987,-0.6003,-0.6027,-0.6042,-0.6071,-0.6095,-0.6118,-0.6129,-0.613,-0.613,-0.6136,-0.6135,-0.6132,-0.6135,-0.6084,-0.613,-0.6129,-0.6129,-0.6129,-0.6129,-0.5893,-0.591,-0.5929,-0.5951,-0.5965,-0.5981,-0.5998,-0.6009,-0.603,-0.6055,-0.6058,-0.6084,-0.6102,-0.6132,-0.6144,-0.6164,-0.616,-0.6168,-0.617,-0.6172,-0.6174,-0.6127,-0.6168,-0.6168,-0.6168,-0.6168,-0.6168,0,-0.5934,-0.5946,-0.5966,-0.5991,-0.6008,-0.6007,-0.6026,-0.6041,-0.6063,-0.608,-0.6099,-0.6126,-0.6149,-0.6163,-0.6186,-0.6199,-0.62,-0.6205,-0.6205,-0.6207,-0.6175,-0.6169,-0.6204,-0.6204,-0.6204,-0.6204,-0.6204,-0.6204,-0.5957,-0.5986,-0.5992,-0.6028,-0.6039,-0.6065,-0.6076,-0.6091,-0.6104,-0.6134,-0.6153,-0.6162,-0.6178,-0.6201,-0.6222,-0.6225,-0.6234,-0.6239,-0.6243,-0.6213,-0.621,-0.6206,-0.62,-0.6241,-0.6241,-0.6273,-0.6274,-0.6274]}]]